ATLAS 5 CENTAUR DEB, 46668

Orbit data source: Space-Track

ATLAS 5 CENTAUR DEB, 46668 is space debris in HEO originally from a launch on Wed, 17 Oct 2018 UTC launched from the Air Force Eastern Test Range (AFETR). Debris objects in space refer to the collection of defunct objects orbiting the Earth. Examples of debris include non-operational satellites, rocket bodies, and fragments generated from explosions, collisions, or faulty payload assembly.

Loading next visibility...
Identifier
46668, 2018-079CW
Orbit
HEO
Country
Flag of USUS
Related business
Flag of USUnited Launch Alliance/Lockheed Martin (US)
Manufacturer
ULA Decatur
Mission
Spacecraft
Bus & Motor
Unknown
Mass
Unknown
Launch date (UTC)
2018-10-17 (7 years ago)
Launch vehicle
Unknown
Launch site
Air Force Eastern Test Range (AFETR)
Object type
Payload
Rocket body
Debris
Shape & HBR
Unknown shape, 1.1 m
Radar Cross Section
RCS unknown

Expand to show TLE details & history
Last TLE update: 22 hours ago

TLE from 22 hours ago
0 ATLAS 5 CENTAUR DEB
1 46668U 18079CW  25309.47831658 -.00000063  00000-0  00000-0 0  9996
2 46668  13.0086  52.8962 4654011 283.0041  30.6408  1.83703700 34064
Epoch: 2025-11-05T11:28Z
TLE epoch observation values (Epoch: 2025-11-05T11:28:46.552Z)
Latitude
-0.00001°
Longitude
-164.34362°
Altitude
13,587.998 km
Speed
5.077 km/s
True Right ascension
03h 31m 12s
True Declination
0° 00' 00"
Sunlit
Object was in daylight at epoch
Visualization orbit readout
Latitude
Unknown
Longitude
Unknown
Altitude
Unknown
Speed
Unknown
Apparent Right ascension
Unknown
Apparent Declination
Unknown
Sunlit
N/A
Visualization observer readout
Local Sidereal Time
05:53:08
Azimuth
Unknown
Elevation
Unknown
Doppler factor
Unknown
Orbital elements
Apogee altitude
34,892.91 km
Perigee altitude
8,678.121 km
Semi-major axis
28,163.653 km
Eccentricity
0.4654
Inclination
13.0086°
RAAN
52.8962°
Arg. of periapsis
283.0041°
True anomaly
77.23711°
Mean anomaly
30.6408°
Eccentric anomaly
51.51331°
Mean motion
0.45921 °/min
Orbital period
783.96 mins
BSTAR
0
Loading maneuver chart data...
Computing Atmospheric mass density...

Documentation

Showing up to 5 results
|